Home   Weather   Prince George   Past weeks

Flag for Canada Past Weather in Prince George, British Columbia, Canada — Yesterday and Last 2 Weeks

Now
54 °F

Clear.


Feels Like: 48 °F
Forecast: 45 / 62 °F
Wind: 20 mph from South

Location: Prince George

Current Time: Sep 26, 2016 at 12:11:37 AM

Latest Report: Sep 25, 2016 at 11:00 PM


Visibility: 9 mi

Pressure: 30.14 "Hg (28.14 "Hg at 573m altitude)

Humidity: 82%

Dew Point: 48 °F

Location of Prince GeorgeLocation

Past Weather in Prince George — Graph

°F

Prince George Temperature Yesterday

Maximum temperature yesterday: 54 °F (at 10:00 PM)
Minimum temperature yesterday: 45 °F (at 12:00 AM)
Average temperature yesterday: 48 °F

High & Low Weather Summary for the Past Weeks

 TemperatureHumidityPressure
High72 °F (Sep 14, 4:00 PM)100% (Sep 11, 4:00 AM)30.42 "Hg (Sep 11, 4:00 AM)
Low30 °F (Sep 20, 7:00 AM)34% (Sep 22, 4:00 PM)29.59 "Hg (Sep 17, 3:00 PM)
Average48 °F85%30.08 "Hg
* Reported Sep 10 11:00 PM — Sep 25 11:00 PM, Prince George, Weather by CustomWeather, © 2016

Note: Actual official high and low records may vary slightly from our data, if they occured in-between our weather recording intervals... More about our weather records

Advertising

Prince George Weather History for the Previous 24 Hours

Scroll right to see more
 ConditionsComfort  
Time TempWeatherWind HumidityBarometerVisibility
11:00 PM
Sun, Sep 25
54 °FClear.20 mph82%30.14 "Hg9 mi
10:00 PM54 °FClear.10 mph82%30.14 "Hg9 mi
9:00 PM50 °FClear.3 mph94%30.17 "Hg9 mi
8:00 PM50 °FPassing clouds.3 mph100%30.18 "Hg9 mi
7:00 PM50 °FPassing clouds.2 mph100%30.19 "Hg9 mi
6:00 PM52 °FOvercast.3 mph100%30.21 "Hg9 mi
5:00 PM52 °FMostly cloudy.10 mph94%30.22 "Hg9 mi
4:00 PM52 °FOvercast.10 mph94%30.24 "Hg9 mi
3:00 PM50 °FOvercast.10 mph100%30.26 "Hg9 mi
2:48 PM50 °FOvercast.12 mph100%30.25 "Hg9 mi
2:00 PM50 °FLight rain. Cloudy.13 mph100%30.28 "Hg9 mi
1:00 PM50 °FLight rain. More clouds than sun.14 mph94%30.28 "Hg9 mi
12:00 PM50 °FLight rain. More clouds than sun.16 mph94%30.27 "Hg9 mi
11:59 AM50 °FLight rain. More clouds than sun.16 mph94%30.26 "Hg9 mi
11:02 AM48 °FLight rain. Mostly cloudy.14 mph100%30.26 "Hg9 mi
10:00 AM48 °FLight rain. Broken clouds.13 mph94%30.25 "Hg9 mi
9:00 AM46 °FLight rain. Overcast.15 mph100%30.24 "Hg9 mi
8:00 AM46 °FLight rain. Overcast.14 mph100%30.22 "Hg9 mi
7:00 AM46 °FLight rain. Overcast.10 mph93%30.21 "Hg9 mi
6:00 AM45 °FLight rain. Overcast.3 mph100%30.19 "Hg9 mi
5:00 AM45 °FLight rain. Mostly cloudy.2 mph93%30.19 "Hg9 mi
4:00 AM45 °FLight rain. Mostly cloudy.5 mph93%30.20 "Hg9 mi
3:00 AM45 °FOvercast.6 mph100%30.21 "Hg9 mi
2:00 AM45 °FMostly cloudy.5 mph93%30.22 "Hg9 mi
1:00 AM45 °FLight rain. Overcast.6 mph100%30.24 "Hg9 mi
12:00 AM45 °FLight rain. Passing clouds.3 mph100%30.27 "Hg9 mi
Weather by CustomWeather, © 2016

See weather overviewHow to use our weather pages